Portada
METAR-TAF:

METAR-TAF

Aeropuertos :

Valencia, España

Helipuerto Bétera-Valencia

latitud: 39-37-26N, longitud: 0-28-26W, altitud: 127 m

Observación

El informe se hizo hace 43 minutos, a las 22:00 UTC
Viento 1 kt con dirección variable
Temperatura 24°C
Humedad 89%
Presión 1016 hPa
Visibilidad 10 km o más

METAR: LEBT 222200Z AUTO VRB01KT 9999 // NCD 24/22 Q1016

Hora: 00:43 (22:43 UTC)


TAF: falta

Observaciones y pronósticos meteorológicos de más de 4000 aeropuertos (mensajes METAR y TAF).

Los puntos amarillos y rojos representan las estaciones disponibles.

Ponga el ratón en el punto deseado para ver el nombre de la estación.

Haga clic para ver las observaciones y los pronósticos meteorológicos.

Para cambiar el mapa : haga clic en los botones verdes con una cruz de color negro para hacer un zoom, en el botón verde con un guión para alejar o en las flechas verdes para mapas adyacentes.


METAR-TAF: